Massena, NY

12:20 PM EDT on March 25, 2017 (GMT -0400)
Massena International-Richards

Weather History for KMSS - May, 2012

Change the Weather History Date:

Saturday, May 26, 2012

  Actual Average Record
Temperature  
Mean Temperature 67 °F 58 °F  
Max Temperature 79 °F 70 °F 96 °F (2010)
Min Temperature 55 °F 47 °F 32 °F (1969)
Degree Days  
Heating Degree Days 0 7  
Month to date heating degree days 285  
Since 1 July heating degree days 8067  
Cooling Degree Days 2 1  
Month to date cooling degree days 25 7  
Year to date cooling degree days 30 8  
Growing Degree Days 16 (Base 50)    
Moisture  
Dew Point 50 °F    
Average Humidity 55    
Maximum Humidity 72    
Minimum Humidity 38    
Precipitation  
Precipitation 0.00 in 0.10 in 0.67 in (1991)
Month to date precipitation 2.87 2.56  
Year to date precipitation 9.49 11.42  
Sea Level Pressure  
Sea Level Pressure 30.12 in    
Wind  
Wind Speed 5 mph (WNW)    
Max Wind Speed 14 mph    
Max Gust Speed 17 mph    
Visibility 10 miles    
Events      
T = Trace of Precipitation, MM = Missing Value Source: NWS Daily Summary

Daily Weather History Graph

Daily Weather History Graph

Search for Another Location

Airport or City:

Trip Planner

Search our weather history database for the weather conditions in past years. The results will help you decide how hot, cold, wet, or windy it might be!

Date:

Astronomy

May. 26, 2012 Rise Set
Actual Time 5:19 AM EDT 8:33 PM EDT
Civil Twilight 4:44 AM EDT 9:09 PM EDT
Nautical Twilight 3:57 AM EDT 9:55 PM EDT
Astronomical Twilight 3:01 AM EDT 10:53 PM EDT
Moon 10:24 AM EDT (5/26) 12:01 AM EDT (5/26)
Length of Visible Light 16h 25m
Length of Day
15h 14m
Waxing Crescent, 28% of the Moon is Illuminated
May 26
Waxing Crescent
May 28
First Quarter
Jun 4
Full
Jun 11
Last Quarter
Jun 19
New

Hourly Weather History & Observations

Time (EDT) Temp. Dew Point Humidity Pressure Visibility Wind Dir Wind Speed Gust Speed Precip Events Conditions
12:53 AM 72.0 °F 44.1 °F 37% 30.00 in 10.0 mi WSW 6.9 mph - N/A   Mostly Cloudy
1:53 AM 69.1 °F 45.0 °F 42% 30.02 in 10.0 mi WSW 5.8 mph - N/A   Mostly Cloudy
2:53 AM 63.0 °F 46.0 °F 54% 30.04 in 10.0 mi SW 5.8 mph - N/A   Mostly Cloudy
3:53 AM 61.0 °F 45.0 °F 56% 30.06 in 10.0 mi SW 3.5 mph - N/A   Partly Cloudy
4:53 AM 57.0 °F 46.9 °F 69% 30.07 in 10.0 mi SSW 3.5 mph - N/A   Clear
5:53 AM 55.9 °F 46.9 °F 72% 30.10 in 10.0 mi WSW 3.5 mph - N/A   Clear
6:53 AM 61.0 °F 50.0 °F 67% 30.12 in 10.0 mi SW 3.5 mph - N/A   Clear
7:53 AM 64.9 °F 50.0 °F 58% 30.13 in 10.0 mi West 5.8 mph - N/A   Clear
8:53 AM 66.9 °F 52.0 °F 59% 30.14 in 10.0 mi WNW 3.5 mph - N/A   Clear
9:53 AM 70.0 °F 54.0 °F 57% 30.14 in 10.0 mi Variable 4.6 mph - N/A   Clear
10:53 AM 73.0 °F 54.0 °F 51% 30.15 in 9.0 mi Calm Calm - N/A   Clear
11:53 AM 75.0 °F 54.0 °F 48% 30.14 in 7.0 mi West 4.6 mph - N/A   Clear
12:53 PM 75.9 °F 52.0 °F 43% 30.14 in 9.0 mi WSW 8.1 mph - N/A   Clear
1:53 PM 77.0 °F 52.0 °F 42% 30.14 in 10.0 mi WSW 10.4 mph - N/A   Scattered Clouds
2:53 PM 78.1 °F 51.1 °F 39% 30.14 in 10.0 mi West 9.2 mph - N/A   Clear
3:53 PM 78.1 °F 51.1 °F 39% 30.13 in 10.0 mi NW 11.5 mph 16.1 mph N/A   Clear
4:53 PM 78.1 °F 51.1 °F 39% 30.12 in 10.0 mi NNW 10.4 mph 16.1 mph N/A   Clear
5:53 PM 75.9 °F 52.0 °F 43% 30.12 in 10.0 mi North 8.1 mph - N/A   Clear
6:53 PM 75.0 °F 51.1 °F 43% 30.11 in 10.0 mi North 9.2 mph - N/A   Clear
7:53 PM 72.0 °F 51.1 °F 48% 30.13 in 10.0 mi North 4.6 mph - N/A   Scattered Clouds
8:53 PM 66.9 °F 52.0 °F 59% 30.15 in 10.0 mi North 3.5 mph - N/A   Scattered Clouds
9:53 PM 66.0 °F 52.0 °F 60% 30.18 in 10.0 mi Calm Calm - N/A   Mostly Cloudy
10:53 PM 63.0 °F 54.0 °F 72% 30.18 in 10.0 mi Calm Calm - N/A   Mostly Cloudy
11:53 PM 64.0 °F 51.1 °F 63% 30.19 in 10.0 mi North 3.5 mph - N/A   Overcast